Accueil
METAR-TAF:

METAR-TAF

Aéroports :

Hoorn-a, Pays-Bas

Plate-forme pétrolière

latitude: 52-55-05N, longitude: 4-09-01E, altitude: 41 m

Observation

Le bulletin a été fait il y a 17 minutes, à 19:25 UTC
Vent 23 kt de sud/sud-ouest
Température 7°C
Humidité 66%
Pression 1008 hPa
Visibilité 10 km ou plus
Quelques nuages à une hauteur de 2200 ft
Nuages épars à une hauteur de 2500 ft
Nuages fragmentés à une hauteur de 2900 ft

METAR: EHQE 121925Z AUTO 20023KT 9999 FEW022 SCT025 BKN029 07/01 Q1008 W///H///

Heure: 20:42 (19:42 UTC)


TAF: absent

Observations et prévisions météorologiques de plus de 4000 aéroports (messages METAR et TAF).

Les stations disponibles sont représentées par des disques jaunes et rouges sur la carte.

Passer la souris dessus pour voir le nom de la station.

Cliquer dessus pour voir les observations et prévisions météorologiques.

Pour changer de carte: cliquez sur les boutons verts avec une croix noire pour zoomer, sur le bouton vert avec un tiret pour effectuer un zoom arrière, ou sur les flèches vertes pour les cartes adjacentes.


METAR-TAF: